Location: Castle Hill Houses
(40.8186°N, 73.8497°W)
Time: 00:01:08
(UTC+00:00)

Cosmos 2322 Rocket - Pass Details

Date: 26 January 2020
Orbit: 831 x 852 km, 71.0° (Epoch: 23 February)

Event Time Altitude Azimuth Distance (km) Brightness Sun altitude
Rises 09:08:24 0° 169° (S) 3,379 5.4 -34.6°
Reaches altitude 10° 09:11:10 10° 157° (SSE) 2,453 4.8 -34.0°
Maximum altitude 09:15:46 26° 102° (ESE) 1,596 4.1 -33.2°
Drops below altitude 10° 09:20:23 10° 47° (NE) 2,478 5.2 -32.3°
Sets 09:23:12 0° 36° (NE) 3,421 5.8 -31.8°
